Regional Weather Roundup
Issued by NWS

Home | Current Version | Previous Version | Graphics & Text | Print | Product List | Glossary Off
Versions: 1 2 3 4 5 6 7 8 9 10 11 12 13 14 15 16 17 18 19 20 21 22 23 24 25 26 27 28 29 30 31 32 33 34 35 36 37 38 39 40 41 42 43 44 45 46 47 48 49 50

000
ASUS43 KFSD 180702
RWRSD

WEATHER ROUNDUP FOR SOUTH DAKOTA
NATIONAL WEATHER SERVICE SIOUX FALLS SD
200 AM CDT FRI AUG 18 2017

NOTE: "FAIR" INDICATES FEW OR NO CLOUDS BELOW 12,000 FEET WITH NO
SIGNIFICANT WEATHER AND/OR OBSTRUCTIONS TO VISIBILITY.


SDZ001>005-009-010-012>017-180800-
NORTHWEST AND NORTH CENTRAL SOUTH DAKOTA

CITY           SKY/WX    TMP DP  RH WIND       PRES   REMARKS
BUFFALO          N/A     60  44  55 NW9       29.91S
FAITH            N/A     62  49  62 W10       29.92R
MOBRIDGE       CLOUDY    67  59  75 S10       29.86S
$$

SDZ012>016-024>037-041>051-057-063-072>074-180800-
SOUTHWEST AND SOUTH CENTRAL SOUTH DAKOTA

CITY           SKY/WX    TMP DP  RH WIND       PRES   REMARKS
RAPID CTY ARPT CLEAR     60  47  61 W7        30.00R
PIERRE         PTCLDY    65  58  78 S8        29.89F
CUSTER         CLEAR     53  38  56 W7        30.15S
ELLSWORTH AFB  CLEAR     58  49  72 W8        29.99R
PHILIP         CLEAR     58  49  72 W6        29.93S
PINE RIDGE     CLEAR     52  51  97 CALM      30.03R
SPEARFISH      FAIR      63  43  48 CALM      30.05S
WINNER         FAIR      62  59  90 E8        29.93R
$$

SDZ004>011-016>023-039-040-180800-
NORTHEAST SOUTH DAKOTA

CITY           SKY/WX    TMP DP  RH WIND       PRES   REMARKS
ABERDEEN       CLOUDY    63  60  90 W6        29.91R
WATERTOWN      CLOUDY    61  57  87 CALM      29.89S
BROOKINGS      LGT RAIN  63  57  81 S10       29.90F
SISSETON         N/A     63  60  90 CALM      29.87S
$$

SDZ017-020-022-023-036>040-048>070-180800-
SOUTHEAST SOUTH DAKOTA

CITY           SKY/WX    TMP DP  RH WIND       PRES   REMARKS
SIOUX FALLS    RAIN      65  62  90 N5        29.93F
HURON          CLOUDY    63  57  81 S9        29.87S
CHAMBERLAIN    CLOUDY    65  63  93 SE7       29.88F
MITCHELL       LGT RAIN  64  60  87 SE18      29.85F
YANKTON        RAIN      63  58  83 N10       29.94F
$$

ABBREVIATIONS USED IN REMARKS
   TC - TEMPERATURE IN CELSIUS
  WCI - WIND CHILL INDEX
   HX - HEAT INDEX
  VSB - VISIBILITY





USA.gov is the U.S. government's official web portal to all federal, state and local government web resources and services.